Year,Month,Day,Hour,Minute,Value (Times are PST for temperature in C)
2005,06,07,00,00,12.90
2005,06,07,00,01,12.90
2005,06,07,00,02,12.90
2005,06,07,00,03,12.90
2005,06,07,00,04,12.90
2005,06,07,00,05,12.90
2005,06,07,00,06,12.90
2005,06,07,00,07,12.90
2005,06,07,00,08,12.90
2005,06,07,00,09,12.90
2005,06,07,00,10,12.90
2005,06,07,00,11,12.90
2005,06,07,00,12,12.90
2005,06,07,00,13,12.90
2005,06,07,00,14,12.90
2005,06,07,00,15,12.90
2005,06,07,00,16,12.90
2005,06,07,00,17,12.90
2005,06,07,00,18,12.90
2005,06,07,00,19,12.90
2005,06,07,00,20,12.90
2005,06,07,00,21,12.90
2005,06,07,00,22,12.90
2005,06,07,00,23,12.90
2005,06,07,00,24,12.90
2005,06,07,00,25,12.80
2005,06,07,00,26,12.80
2005,06,07,00,27,12.80
2005,06,07,00,28,12.80
2005,06,07,00,29,12.80
2005,06,07,00,30,12.80
2005,06,07,00,31,12.80
2005,06,07,00,32,12.80
2005,06,07,00,33,12.80
2005,06,07,00,34,12.80
2005,06,07,00,35,12.80
2005,06,07,00,36,12.80
2005,06,07,00,37,12.80
2005,06,07,00,38,12.80
2005,06,07,00,39,12.70
2005,06,07,00,40,12.70
2005,06,07,00,41,12.70
2005,06,07,00,42,12.70
2005,06,07,00,43,12.70
2005,06,07,00,44,12.70
2005,06,07,00,45,12.60
2005,06,07,00,46,12.60
2005,06,07,00,47,12.60
2005,06,07,00,48,12.60
2005,06,07,00,49,12.60
2005,06,07,00,50,12.60
2005,06,07,00,51,12.60
2005,06,07,00,52,12.60
2005,06,07,00,53,12.60
2005,06,07,00,54,12.60
2005,06,07,00,55,12.60
2005,06,07,00,56,12.60
2005,06,07,00,57,12.60
2005,06,07,00,58,12.60
2005,06,07,00,59,12.60
2005,06,07,01,00,12.60
2005,06,07,01,01,12.60
2005,06,07,01,02,12.60
2005,06,07,01,03,12.60
2005,06,07,01,04,12.60
2005,06,07,01,05,12.50
2005,06,07,01,06,12.50
2005,06,07,01,07,12.50
2005,06,07,01,08,12.50
2005,06,07,01,09,12.50
2005,06,07,01,10,12.50
2005,06,07,01,11,12.50
2005,06,07,01,12,12.50
2005,06,07,01,13,12.50
2005,06,07,01,14,12.50
2005,06,07,01,15,12.50
2005,06,07,01,16,12.50
2005,06,07,01,17,12.50
2005,06,07,01,18,12.50
2005,06,07,01,19,12.50
2005,06,07,01,20,12.50
2005,06,07,01,21,12.50
2005,06,07,01,22,12.40
2005,06,07,01,23,12.40
2005,06,07,01,24,12.40
2005,06,07,01,25,12.40
2005,06,07,01,26,12.40
2005,06,07,01,27,12.30
2005,06,07,01,28,12.30
2005,06,07,01,29,12.30
2005,06,07,01,30,12.30
2005,06,07,01,31,12.30
2005,06,07,01,32,12.30
2005,06,07,01,33,12.30
2005,06,07,01,34,12.30
2005,06,07,01,35,12.20
2005,06,07,01,36,12.20
2005,06,07,01,37,12.20
2005,06,07,01,38,12.10
2005,06,07,01,39,12.10
2005,06,07,01,40,12.10
2005,06,07,01,41,12.10
2005,06,07,01,42,12.00
2005,06,07,01,43,12.00
2005,06,07,01,44,12.00
2005,06,07,01,45,12.00
2005,06,07,01,46,12.00
2005,06,07,01,47,12.00
2005,06,07,01,48,12.00
2005,06,07,01,49,12.00
2005,06,07,01,50,11.90
2005,06,07,01,51,11.90
2005,06,07,01,52,11.90
2005,06,07,01,53,11.90
2005,06,07,01,54,11.90
2005,06,07,01,55,11.90
2005,06,07,01,56,11.90
2005,06,07,01,57,11.90
2005,06,07,01,58,11.90
2005,06,07,01,59,11.90
2005,06,07,02,00,11.90
2005,06,07,02,01,11.80
2005,06,07,02,02,11.80
2005,06,07,02,03,11.80
2005,06,07,02,04,11.80
2005,06,07,02,05,11.80
2005,06,07,02,06,11.80
2005,06,07,02,07,11.80
2005,06,07,02,08,11.80
2005,06,07,02,09,11.80
2005,06,07,02,10,11.80
2005,06,07,02,11,11.80
2005,06,07,02,12,11.80
2005,06,07,02,13,11.80
2005,06,07,02,14,11.80
2005,06,07,02,15,11.70
2005,06,07,02,16,11.70
2005,06,07,02,17,11.70
2005,06,07,02,18,11.60
2005,06,07,02,19,11.60
2005,06,07,02,20,11.60
2005,06,07,02,21,11.60
2005,06,07,02,22,11.60
2005,06,07,02,23,11.60
2005,06,07,02,24,11.60
2005,06,07,02,25,11.60
2005,06,07,02,26,11.60
2005,06,07,02,27,11.50
2005,06,07,02,28,11.40
2005,06,07,02,29,11.40
2005,06,07,02,30,11.40
2005,06,07,02,31,11.40
2005,06,07,02,32,11.40
2005,06,07,02,33,11.40
2005,06,07,02,34,11.40
2005,06,07,02,35,11.30
2005,06,07,02,36,11.30
2005,06,07,02,37,11.30
2005,06,07,02,38,11.30
2005,06,07,02,39,11.20
2005,06,07,02,40,11.20
2005,06,07,02,41,11.20
2005,06,07,02,42,11.20
2005,06,07,02,43,11.10
2005,06,07,02,44,11.10
2005,06,07,02,45,11.10
2005,06,07,02,46,11.10
2005,06,07,02,47,11.10
2005,06,07,02,48,11.10
2005,06,07,02,49,11.10
2005,06,07,02,50,11.00
2005,06,07,02,51,10.90
2005,06,07,02,52,10.90
2005,06,07,02,53,10.90
2005,06,07,02,54,10.80
2005,06,07,02,55,10.80
2005,06,07,02,56,10.70
2005,06,07,02,57,10.70
2005,06,07,02,58,10.70
2005,06,07,02,59,10.70
2005,06,07,03,00,10.60
2005,06,07,03,01,10.60
2005,06,07,03,02,10.60
2005,06,07,03,03,10.60
2005,06,07,03,04,10.60
2005,06,07,03,05,10.50
2005,06,07,03,06,10.40
2005,06,07,03,07,10.40
2005,06,07,03,08,10.40
2005,06,07,03,09,10.40
2005,06,07,03,10,10.40
2005,06,07,03,11,10.40
2005,06,07,03,12,10.40
2005,06,07,03,13,10.40
2005,06,07,03,14,10.40
2005,06,07,03,15,10.50
2005,06,07,03,16,10.60
2005,06,07,03,17,10.60
2005,06,07,03,18,10.60
2005,06,07,03,19,10.60
2005,06,07,03,20,10.60
2005,06,07,03,21,10.60
2005,06,07,03,22,10.60
2005,06,07,03,23,10.60
2005,06,07,03,24,10.60
2005,06,07,03,25,10.60
2005,06,07,03,26,10.50
2005,06,07,03,27,10.40
2005,06,07,03,28,10.40
2005,06,07,03,29,10.30
2005,06,07,03,30,10.30
2005,06,07,03,31,10.20
2005,06,07,03,32,10.20
2005,06,07,03,33,10.10
2005,06,07,03,34,10.10
2005,06,07,03,35,10.00
2005,06,07,03,36,9.90
2005,06,07,03,37,9.90
2005,06,07,03,38,9.90
2005,06,07,03,39,9.80
2005,06,07,03,40,9.80
2005,06,07,03,41,9.80
2005,06,07,03,42,9.80
2005,06,07,03,43,9.70
2005,06,07,03,44,9.70
2005,06,07,03,45,9.70
2005,06,07,03,46,9.70
2005,06,07,03,47,9.70
2005,06,07,03,48,9.70
2005,06,07,03,49,9.70
2005,06,07,03,50,9.70
2005,06,07,03,51,9.70
2005,06,07,03,52,9.70
2005,06,07,03,53,9.70
2005,06,07,03,54,9.70
2005,06,07,03,55,9.70
2005,06,07,03,56,9.70
2005,06,07,03,57,9.70
2005,06,07,03,58,9.70
2005,06,07,03,59,9.70
2005,06,07,04,00,9.70
2005,06,07,04,01,9.70
2005,06,07,04,02,9.70
2005,06,07,04,03,9.70
2005,06,07,04,04,9.70
2005,06,07,04,05,9.70
2005,06,07,04,06,9.70
2005,06,07,04,07,9.80
2005,06,07,04,08,9.80
2005,06,07,04,09,9.80
2005,06,07,04,10,9.80
2005,06,07,04,11,9.90
2005,06,07,04,12,9.90
2005,06,07,04,13,9.90
2005,06,07,04,14,9.90
2005,06,07,04,15,9.90
2005,06,07,04,16,9.90
2005,06,07,04,17,9.90
2005,06,07,04,18,9.90
2005,06,07,04,19,9.90
2005,06,07,04,20,9.90
2005,06,07,04,21,9.90
2005,06,07,04,22,9.90
2005,06,07,04,23,9.90
2005,06,07,04,24,9.90
2005,06,07,04,25,9.90
2005,06,07,04,26,9.90
2005,06,07,04,27,9.90
2005,06,07,04,28,10.00
2005,06,07,04,29,10.10
2005,06,07,04,30,10.10
2005,06,07,04,31,10.10
2005,06,07,04,32,10.10
2005,06,07,04,33,10.10
2005,06,07,04,34,10.10
2005,06,07,04,35,10.10
2005,06,07,04,36,10.10
2005,06,07,04,37,10.10
2005,06,07,04,38,10.10
2005,06,07,04,39,10.10
2005,06,07,04,40,10.10
2005,06,07,04,41,10.10
2005,06,07,04,42,10.10
2005,06,07,04,43,10.10
2005,06,07,04,44,10.10
2005,06,07,04,45,10.10
2005,06,07,04,46,10.10
2005,06,07,04,47,10.10
2005,06,07,04,48,10.10
2005,06,07,04,49,10.10
2005,06,07,04,50,10.10
2005,06,07,04,51,10.10
2005,06,07,04,52,10.10
2005,06,07,04,53,10.10
2005,06,07,04,54,10.10
2005,06,07,04,55,10.10
2005,06,07,04,56,10.10
2005,06,07,04,57,10.20
2005,06,07,04,58,10.20
2005,06,07,04,59,10.20
2005,06,07,05,00,10.20
2005,06,07,05,01,10.20
2005,06,07,05,02,10.20
2005,06,07,05,03,10.20
2005,06,07,05,04,10.20
2005,06,07,05,05,10.30
2005,06,07,05,06,10.30
2005,06,07,05,07,10.30
2005,06,07,05,08,10.30
2005,06,07,05,09,10.30
2005,06,07,05,10,10.30
2005,06,07,05,11,10.30
2005,06,07,05,12,10.20
2005,06,07,05,13,10.20
2005,06,07,05,14,10.20
2005,06,07,05,15,10.20
2005,06,07,05,16,10.20
2005,06,07,05,17,10.20
2005,06,07,05,18,10.20
2005,06,07,05,19,10.20
2005,06,07,05,20,10.20
2005,06,07,05,21,10.20
2005,06,07,05,22,10.20
2005,06,07,05,23,10.20
2005,06,07,05,24,10.20
2005,06,07,05,25,10.20
2005,06,07,05,26,10.20
2005,06,07,05,27,10.20
2005,06,07,05,28,10.20
2005,06,07,05,29,10.20
2005,06,07,05,30,10.20
2005,06,07,05,31,10.20
2005,06,07,05,32,10.10
2005,06,07,05,33,10.10
2005,06,07,05,34,10.10
2005,06,07,05,35,10.10
2005,06,07,05,36,10.10
2005,06,07,05,37,10.10
2005,06,07,05,38,10.00
2005,06,07,05,39,9.90
2005,06,07,05,40,9.90
2005,06,07,05,41,9.90
2005,06,07,05,42,9.90
2005,06,07,05,43,9.90
2005,06,07,05,44,9.90
2005,06,07,05,45,9.90
2005,06,07,05,46,9.90
2005,06,07,05,47,9.90
2005,06,07,05,48,9.90
2005,06,07,05,49,9.90
2005,06,07,05,50,9.90
2005,06,07,05,51,9.90
2005,06,07,05,52,9.90
2005,06,07,05,53,9.90
2005,06,07,05,54,9.80
2005,06,07,05,55,9.80
2005,06,07,05,56,9.80
2005,06,07,05,57,9.80
2005,06,07,05,58,9.70
2005,06,07,05,59,9.70
2005,06,07,06,00,9.70
2005,06,07,06,01,9.70
2005,06,07,06,02,9.70
2005,06,07,06,03,9.70
2005,06,07,06,04,9.60
2005,06,07,06,05,9.60
2005,06,07,06,06,9.60
2005,06,07,06,07,9.60
2005,06,07,06,08,9.60
2005,06,07,06,09,9.50
2005,06,07,06,10,9.50
2005,06,07,06,11,9.50
2005,06,07,06,12,9.50
2005,06,07,06,13,9.40
2005,06,07,06,14,9.40
2005,06,07,06,15,9.40
2005,06,07,06,16,9.40
2005,06,07,06,17,9.40
2005,06,07,06,18,9.40
2005,06,07,06,19,9.40
2005,06,07,06,20,9.40
2005,06,07,06,21,9.40
2005,06,07,06,22,9.40
2005,06,07,06,23,9.40
2005,06,07,06,24,9.40
2005,06,07,06,25,9.40
2005,06,07,06,26,9.40
2005,06,07,06,27,9.40
2005,06,07,06,28,9.40
2005,06,07,06,29,9.50
2005,06,07,06,30,9.50
2005,06,07,06,31,9.50
2005,06,07,06,32,9.50
2005,06,07,06,33,9.50
2005,06,07,06,34,9.50
2005,06,07,06,35,9.50
2005,06,07,06,36,9.50
2005,06,07,06,37,9.50
2005,06,07,06,38,9.60
2005,06,07,06,39,9.60
2005,06,07,06,40,9.60
2005,06,07,06,41,9.60
2005,06,07,06,42,9.60
2005,06,07,06,43,9.70
2005,06,07,06,44,9.70
2005,06,07,06,45,9.70
2005,06,07,06,46,9.70
2005,06,07,06,47,9.70
2005,06,07,06,48,9.70
2005,06,07,06,49,9.70
2005,06,07,06,50,9.80
2005,06,07,06,51,9.80
2005,06,07,06,52,9.80
2005,06,07,06,53,9.90
2005,06,07,06,54,9.90
2005,06,07,06,55,9.90
2005,06,07,06,56,9.90
2005,06,07,06,57,10.00
2005,06,07,06,58,10.10
2005,06,07,06,59,10.10
2005,06,07,07,00,10.10
2005,06,07,07,01,10.20
2005,06,07,07,02,10.30
2005,06,07,07,03,10.40
2005,06,07,07,04,10.40
2005,06,07,07,05,10.50
2005,06,07,07,06,10.60
2005,06,07,07,07,10.60
2005,06,07,07,08,10.60
2005,06,07,07,09,10.70
2005,06,07,07,10,10.80
2005,06,07,07,11,10.80
2005,06,07,07,12,10.90
2005,06,07,07,13,10.90
2005,06,07,07,14,10.90
2005,06,07,07,15,10.90
2005,06,07,07,16,11.10
2005,06,07,07,17,11.10
2005,06,07,07,18,11.10
2005,06,07,07,19,11.20
2005,06,07,07,20,11.20
2005,06,07,07,21,11.20
2005,06,07,07,22,11.30
2005,06,07,07,23,11.30
2005,06,07,07,24,11.30
2005,06,07,07,25,11.30
2005,06,07,07,26,11.40
2005,06,07,07,27,11.40
2005,06,07,07,28,11.40
2005,06,07,07,29,11.40
2005,06,07,07,30,11.50
2005,06,07,07,31,11.60
2005,06,07,07,32,11.60
2005,06,07,07,33,11.60
2005,06,07,07,34,11.70
2005,06,07,07,35,11.70
2005,06,07,07,36,11.80
2005,06,07,07,37,11.80
2005,06,07,07,38,11.80
2005,06,07,07,39,11.80
2005,06,07,07,40,11.90
2005,06,07,07,41,12.00
2005,06,07,07,42,12.00
2005,06,07,07,43,12.10
2005,06,07,07,44,12.20
2005,06,07,07,45,12.20
2005,06,07,07,46,12.30
2005,06,07,07,47,12.30
2005,06,07,07,48,12.30
2005,06,07,07,49,12.40
2005,06,07,07,50,12.50
2005,06,07,07,51,12.60
2005,06,07,07,52,12.70
2005,06,07,07,53,12.80
2005,06,07,07,54,12.80
2005,06,07,07,55,12.90
2005,06,07,07,56,13.00
2005,06,07,07,57,13.10
2005,06,07,07,58,13.20
2005,06,07,07,59,13.20
2005,06,07,08,00,13.20
2005,06,07,08,01,13.50
2005,06,07,08,02,13.60
2005,06,07,08,03,13.70
2005,06,07,08,04,13.80
2005,06,07,08,05,13.90
2005,06,07,08,06,14.00
2005,06,07,08,07,14.10
2005,06,07,08,08,14.20
2005,06,07,08,09,14.20
2005,06,07,08,10,14.30
2005,06,07,08,11,14.40
2005,06,07,08,12,14.40
2005,06,07,08,13,14.40
2005,06,07,08,14,14.40
2005,06,07,08,15,14.40
2005,06,07,08,16,14.50
2005,06,07,08,17,14.50
2005,06,07,08,18,14.50
2005,06,07,08,19,14.50
2005,06,07,08,20,14.60
2005,06,07,08,21,14.60
2005,06,07,08,22,14.70
2005,06,07,08,23,14.70
2005,06,07,08,24,14.70
2005,06,07,08,25,14.60
2005,06,07,08,26,14.50
2005,06,07,08,27,14.50
2005,06,07,08,28,14.50
2005,06,07,08,29,14.50
2005,06,07,08,30,14.60
2005,06,07,08,31,14.70
2005,06,07,08,32,14.70
2005,06,07,08,33,14.70
2005,06,07,08,34,14.60
2005,06,07,08,35,14.60
2005,06,07,08,36,14.60
2005,06,07,08,37,14.70
2005,06,07,08,38,14.80
2005,06,07,08,39,14.80
2005,06,07,08,40,14.80
2005,06,07,08,41,14.80
2005,06,07,08,42,14.90
2005,06,07,08,43,15.00
2005,06,07,08,44,15.00
2005,06,07,08,45,15.00
2005,06,07,08,46,14.90
2005,06,07,08,47,14.80
2005,06,07,08,48,14.80
2005,06,07,08,49,14.80
2005,06,07,08,50,14.90
2005,06,07,08,51,15.00
2005,06,07,08,52,15.10
2005,06,07,08,53,15.20
2005,06,07,08,54,15.30
2005,06,07,08,55,15.30
2005,06,07,08,56,15.30
2005,06,07,08,57,15.40
2005,06,07,08,58,15.40
2005,06,07,08,59,15.40
2005,06,07,09,00,15.50
2005,06,07,09,01,15.50
2005,06,07,09,02,15.60
2005,06,07,09,03,15.60
2005,06,07,09,04,15.60
2005,06,07,09,05,15.60
2005,06,07,09,06,15.60
2005,06,07,09,07,15.60
2005,06,07,09,08,15.60
2005,06,07,09,09,15.60
2005,06,07,09,10,15.50
2005,06,07,09,11,15.30
2005,06,07,09,12,15.10
2005,06,07,09,13,15.10
2005,06,07,09,14,15.10
2005,06,07,09,15,15.10
2005,06,07,09,16,15.20
2005,06,07,09,17,15.20
2005,06,07,09,18,15.10
2005,06,07,09,19,15.10
2005,06,07,09,20,15.10
2005,06,07,09,21,15.10
2005,06,07,09,22,15.20
2005,06,07,09,23,15.20
2005,06,07,09,24,15.30
2005,06,07,09,25,15.30
2005,06,07,09,26,15.30
2005,06,07,09,27,15.30
2005,06,07,09,28,15.30
2005,06,07,09,29,15.40
2005,06,07,09,30,15.50
2005,06,07,09,31,15.50
2005,06,07,09,32,15.60
2005,06,07,09,33,15.60
2005,06,07,09,34,15.60
2005,06,07,09,35,15.60
2005,06,07,09,36,15.60
2005,06,07,09,37,15.50
2005,06,07,09,38,15.50
2005,06,07,09,39,15.50
2005,06,07,09,40,15.50
2005,06,07,09,41,15.50
2005,06,07,09,42,15.60
2005,06,07,09,43,15.60
2005,06,07,09,44,15.70
2005,06,07,09,45,15.80
2005,06,07,09,46,15.80
2005,06,07,09,47,15.90
2005,06,07,09,48,15.90
2005,06,07,09,49,15.90
2005,06,07,09,50,15.90
2005,06,07,09,51,15.90
2005,06,07,09,52,15.90
2005,06,07,09,53,15.80
2005,06,07,09,54,15.80
2005,06,07,09,55,15.80
2005,06,07,09,56,15.80
2005,06,07,09,57,15.80
2005,06,07,09,58,15.80
2005,06,07,09,59,15.80
2005,06,07,10,00,15.80
2005,06,07,10,01,15.90
2005,06,07,10,02,16.00
2005,06,07,10,03,16.10
2005,06,07,10,04,16.10
2005,06,07,10,05,16.10
2005,06,07,10,06,16.10
2005,06,07,10,07,16.20
2005,06,07,10,08,16.20
2005,06,07,10,09,16.30
2005,06,07,10,10,16.40
2005,06,07,10,11,16.40
2005,06,07,10,12,16.40
2005,06,07,10,13,16.60
2005,06,07,10,14,16.60
2005,06,07,10,15,16.70
2005,06,07,10,16,16.70
2005,06,07,10,17,16.70
2005,06,07,10,18,16.60
2005,06,07,10,19,16.50
2005,06,07,10,20,16.30
2005,06,07,10,21,16.20
2005,06,07,10,22,16.10
2005,06,07,10,23,16.00
2005,06,07,10,24,15.90
2005,06,07,10,25,16.00
2005,06,07,10,26,16.10
2005,06,07,10,27,16.00
2005,06,07,10,28,15.90
2005,06,07,10,29,15.90
2005,06,07,10,30,15.80
2005,06,07,10,31,15.80
2005,06,07,10,32,15.80
2005,06,07,10,33,15.80
2005,06,07,10,34,15.70
2005,06,07,10,35,15.70
2005,06,07,10,36,15.70
2005,06,07,10,37,15.70
2005,06,07,10,38,15.60
2005,06,07,10,39,15.70
2005,06,07,10,40,15.70
2005,06,07,10,41,15.70
2005,06,07,10,42,15.60
2005,06,07,10,43,15.60
2005,06,07,10,44,15.60
2005,06,07,10,45,15.60
2005,06,07,10,46,15.60
2005,06,07,10,47,15.60
2005,06,07,10,48,15.50
2005,06,07,10,49,15.50
2005,06,07,10,50,15.50
2005,06,07,10,51,15.60
2005,06,07,10,52,15.70
2005,06,07,10,53,15.70
2005,06,07,10,54,15.70
2005,06,07,10,55,15.80
2005,06,07,10,56,15.90
2005,06,07,10,57,15.90
2005,06,07,10,58,16.00
2005,06,07,10,59,16.00
2005,06,07,11,00,15.90
2005,06,07,11,01,16.00
2005,06,07,11,02,16.10
2005,06,07,11,03,16.20
2005,06,07,11,04,16.30
2005,06,07,11,05,16.30
2005,06,07,11,06,16.40
2005,06,07,11,07,16.50
2005,06,07,11,08,16.60
2005,06,07,11,09,16.70
2005,06,07,11,10,16.70
2005,06,07,11,11,16.80
2005,06,07,11,12,16.80
2005,06,07,11,13,16.80
2005,06,07,11,14,16.80
2005,06,07,11,15,16.80
2005,06,07,11,16,16.80
2005,06,07,11,17,16.70
2005,06,07,11,18,16.60
2005,06,07,11,19,16.60
2005,06,07,11,20,16.60
2005,06,07,11,21,16.60
2005,06,07,11,22,16.60
2005,06,07,11,23,16.60
2005,06,07,11,24,16.60
2005,06,07,11,25,16.70
2005,06,07,11,26,16.70
2005,06,07,11,27,16.70
2005,06,07,11,28,16.70
2005,06,07,11,29,16.70
2005,06,07,11,30,16.70
2005,06,07,11,31,16.60
2005,06,07,11,32,16.60
2005,06,07,11,33,16.50
2005,06,07,11,34,16.40
2005,06,07,11,35,16.40
2005,06,07,11,36,16.40
2005,06,07,11,37,16.40
2005,06,07,11,38,16.30
2005,06,07,11,39,16.30
2005,06,07,11,40,16.20
2005,06,07,11,41,16.10
2005,06,07,11,42,16.00
2005,06,07,11,43,15.90
2005,06,07,11,44,15.90
2005,06,07,11,45,15.90
2005,06,07,11,46,15.90
2005,06,07,11,47,15.90
2005,06,07,11,48,15.90
2005,06,07,11,49,16.00
2005,06,07,11,50,16.00
2005,06,07,11,51,16.10
2005,06,07,11,52,16.10
2005,06,07,11,53,16.10
2005,06,07,11,54,16.10
2005,06,07,11,55,16.10
2005,06,07,11,56,15.90
2005,06,07,11,57,15.90
2005,06,07,11,58,15.80
2005,06,07,11,59,15.80
2005,06,07,12,00,15.80
2005,06,07,12,01,15.80
2005,06,07,12,02,15.80
2005,06,07,12,03,15.80
2005,06,07,12,04,15.80
2005,06,07,12,05,15.80
2005,06,07,12,06,15.80
2005,06,07,12,07,15.80
2005,06,07,12,08,15.80
2005,06,07,12,09,15.90
2005,06,07,12,10,15.90
2005,06,07,12,11,15.90
2005,06,07,12,12,15.90
2005,06,07,12,13,15.90
2005,06,07,12,14,15.90
2005,06,07,12,15,15.90
2005,06,07,12,16,15.90
2005,06,07,12,17,15.90
2005,06,07,12,18,15.90
2005,06,07,12,19,15.90
2005,06,07,12,20,16.00
2005,06,07,12,21,16.10
2005,06,07,12,22,16.10
2005,06,07,12,23,16.10
2005,06,07,12,24,16.20
2005,06,07,12,25,16.20
2005,06,07,12,26,16.30
2005,06,07,12,27,16.30
2005,06,07,12,28,16.30
2005,06,07,12,29,16.30
2005,06,07,12,30,16.30
2005,06,07,12,31,16.30
2005,06,07,12,32,16.30
2005,06,07,12,33,16.40
2005,06,07,12,34,16.40
2005,06,07,12,35,16.40
2005,06,07,12,36,16.40
2005,06,07,12,37,16.50
2005,06,07,12,38,16.60
2005,06,07,12,39,16.60
2005,06,07,12,40,16.70
2005,06,07,12,41,16.70
2005,06,07,12,42,16.70
2005,06,07,12,43,16.80
2005,06,07,12,44,16.80
2005,06,07,12,45,16.90
2005,06,07,12,46,16.90
2005,06,07,12,47,16.90
2005,06,07,12,48,16.90
2005,06,07,12,49,17.00
2005,06,07,12,50,16.90
2005,06,07,12,51,16.90
2005,06,07,12,52,16.90
2005,06,07,12,53,17.00
2005,06,07,12,54,17.00
2005,06,07,12,55,17.10
2005,06,07,12,56,17.20
2005,06,07,12,57,17.30
2005,06,07,12,58,17.30
2005,06,07,12,59,17.30
2005,06,07,13,00,17.30
2005,06,07,13,01,17.30
2005,06,07,13,02,17.40
2005,06,07,13,03,17.40
2005,06,07,13,04,17.50
2005,06,07,13,05,17.50
2005,06,07,13,06,17.50
2005,06,07,13,07,17.60
2005,06,07,13,08,17.70
2005,06,07,13,09,17.70
2005,06,07,13,10,17.80
2005,06,07,13,11,17.90
2005,06,07,13,12,18.00
2005,06,07,13,13,18.10
2005,06,07,13,14,18.10
2005,06,07,13,15,18.10
2005,06,07,13,16,18.10
2005,06,07,13,17,18.10
2005,06,07,13,18,18.10
2005,06,07,13,19,18.10
2005,06,07,13,20,18.10
2005,06,07,13,21,18.10
2005,06,07,13,22,18.10
2005,06,07,13,23,18.10
2005,06,07,13,24,18.10
2005,06,07,13,25,18.10
2005,06,07,13,26,18.20
2005,06,07,13,27,18.20
2005,06,07,13,28,18.20
2005,06,07,13,29,18.20
2005,06,07,13,30,18.20
2005,06,07,13,31,18.10
2005,06,07,13,32,18.10
2005,06,07,13,33,18.10
2005,06,07,13,34,18.10
2005,06,07,13,35,18.10
2005,06,07,13,36,18.10
2005,06,07,13,37,18.10
2005,06,07,13,38,18.10
2005,06,07,13,39,18.10
2005,06,07,13,40,18.10
2005,06,07,13,41,18.10
2005,06,07,13,42,17.90
2005,06,07,13,43,17.90
2005,06,07,13,44,17.90
2005,06,07,13,45,17.90
2005,06,07,13,46,17.90
2005,06,07,13,47,17.90
2005,06,07,13,48,17.90
2005,06,07,13,49,17.90
2005,06,07,13,50,17.90
2005,06,07,13,51,18.00
2005,06,07,13,52,18.10
2005,06,07,13,53,18.10
2005,06,07,13,54,18.10
2005,06,07,13,55,18.10
2005,06,07,13,56,18.10
2005,06,07,13,57,18.00
2005,06,07,13,58,17.90
2005,06,07,13,59,17.90
2005,06,07,14,00,17.90
2005,06,07,14,01,17.90
2005,06,07,14,02,18.00
2005,06,07,14,03,18.10
2005,06,07,14,04,18.10
2005,06,07,14,05,18.10
2005,06,07,14,06,18.10
2005,06,07,14,07,18.10
2005,06,07,14,08,18.10
2005,06,07,14,09,18.10
2005,06,07,14,10,18.10
2005,06,07,14,11,18.10
2005,06,07,14,12,18.10
2005,06,07,14,13,18.00
2005,06,07,14,14,17.90
2005,06,07,14,15,17.90
2005,06,07,14,16,17.90
2005,06,07,14,17,17.80
2005,06,07,14,18,17.80
2005,06,07,14,19,17.70
2005,06,07,14,20,17.70
2005,06,07,14,21,17.60
2005,06,07,14,22,17.60
2005,06,07,14,23,17.60
2005,06,07,14,24,17.60
2005,06,07,14,25,17.60
2005,06,07,14,26,17.60
2005,06,07,14,27,17.60
2005,06,07,14,28,17.60
2005,06,07,14,29,17.50
2005,06,07,14,30,17.50
2005,06,07,14,31,17.40
2005,06,07,14,32,17.30
2005,06,07,14,33,17.30
2005,06,07,14,34,17.30
2005,06,07,14,35,17.30
2005,06,07,14,36,17.30
2005,06,07,14,37,17.30
2005,06,07,14,38,17.40
2005,06,07,14,39,17.40
2005,06,07,14,40,17.30
2005,06,07,14,41,17.30
2005,06,07,14,42,17.30
2005,06,07,14,43,17.30
2005,06,07,14,44,17.30
2005,06,07,14,45,17.30
2005,06,07,14,46,17.30
2005,06,07,14,47,17.30
2005,06,07,14,48,17.30
2005,06,07,14,49,17.30
2005,06,07,14,50,17.30
2005,06,07,14,51,17.30
2005,06,07,14,52,17.30
2005,06,07,14,53,17.30
2005,06,07,14,54,17.30
2005,06,07,14,55,17.30
2005,06,07,14,56,17.20
2005,06,07,14,57,17.10
2005,06,07,14,58,17.10
2005,06,07,14,59,17.10
2005,06,07,15,00,17.10
2005,06,07,15,01,17.10
2005,06,07,15,02,17.10
2005,06,07,15,03,17.20
2005,06,07,15,04,17.20
2005,06,07,15,05,17.30
2005,06,07,15,06,17.30
2005,06,07,15,07,17.30
2005,06,07,15,08,17.30
2005,06,07,15,09,17.10
2005,06,07,15,10,17.10
2005,06,07,15,11,17.10
2005,06,07,15,12,17.10
2005,06,07,15,13,17.10
2005,06,07,15,14,17.10
2005,06,07,15,15,17.20
2005,06,07,15,16,17.20
2005,06,07,15,17,17.30
2005,06,07,15,18,17.30
2005,06,07,15,19,17.40
2005,06,07,15,20,17.40
2005,06,07,15,21,17.40
2005,06,07,15,22,17.40
2005,06,07,15,23,17.40
2005,06,07,15,24,17.40
2005,06,07,15,25,17.40
2005,06,07,15,26,17.30
2005,06,07,15,27,17.30
2005,06,07,15,28,17.30
2005,06,07,15,29,17.30
2005,06,07,15,30,17.30
2005,06,07,15,31,17.30
2005,06,07,15,32,17.30
2005,06,07,15,33,17.30
2005,06,07,15,34,17.20
2005,06,07,15,35,17.20
2005,06,07,15,36,17.20
2005,06,07,15,37,17.10
2005,06,07,15,38,17.10
2005,06,07,15,39,17.00
2005,06,07,15,40,17.00
2005,06,07,15,41,17.00
2005,06,07,15,42,16.90
2005,06,07,15,43,16.90
2005,06,07,15,44,16.90
2005,06,07,15,45,16.90
2005,06,07,15,46,16.90
2005,06,07,15,47,16.80
2005,06,07,15,48,16.80
2005,06,07,15,49,16.80
2005,06,07,15,50,16.80
2005,06,07,15,51,16.80
2005,06,07,15,52,16.80
2005,06,07,15,53,16.80
2005,06,07,15,54,16.80
2005,06,07,15,55,16.70
2005,06,07,15,56,16.70
2005,06,07,15,57,16.70
2005,06,07,15,58,16.70
2005,06,07,15,59,16.70
2005,06,07,16,00,16.70
2005,06,07,16,01,16.70
2005,06,07,16,02,16.70
2005,06,07,16,03,16.70
2005,06,07,16,04,16.70
2005,06,07,16,05,16.70
2005,06,07,16,06,16.70
2005,06,07,16,07,16.70
2005,06,07,16,08,16.70
2005,06,07,16,09,16.70
2005,06,07,16,10,16.70
2005,06,07,16,11,16.70
2005,06,07,16,12,16.70
2005,06,07,16,13,16.60
2005,06,07,16,14,16.60
2005,06,07,16,15,16.60
2005,06,07,16,16,16.60
2005,06,07,16,17,16.60
2005,06,07,16,18,16.60
2005,06,07,16,19,16.50
2005,06,07,16,20,16.40
2005,06,07,16,21,16.40
2005,06,07,16,22,16.30
2005,06,07,16,23,16.20
2005,06,07,16,24,16.20
2005,06,07,16,25,16.10
2005,06,07,16,26,16.10
2005,06,07,16,27,16.10
2005,06,07,16,28,16.10
2005,06,07,16,29,16.10
2005,06,07,16,30,16.10
2005,06,07,16,31,16.10
2005,06,07,16,32,16.10
2005,06,07,16,33,16.10
2005,06,07,16,34,16.10
2005,06,07,16,35,16.10
2005,06,07,16,36,16.10
2005,06,07,16,37,16.10
2005,06,07,16,38,16.10
2005,06,07,16,39,16.10
2005,06,07,16,40,16.10
2005,06,07,16,41,16.10
2005,06,07,16,42,16.10
2005,06,07,16,43,16.00
2005,06,07,16,44,15.90
2005,06,07,16,45,15.90
2005,06,07,16,46,15.90
2005,06,07,16,47,15.90
2005,06,07,16,48,15.80
2005,06,07,16,49,15.80
2005,06,07,16,50,15.80
2005,06,07,16,51,15.80
2005,06,07,16,52,15.70
2005,06,07,16,53,15.70
2005,06,07,16,54,15.70
2005,06,07,16,55,15.70
2005,06,07,16,56,15.70
2005,06,07,16,57,15.70
2005,06,07,16,58,15.70
2005,06,07,16,59,15.70
2005,06,07,17,00,15.70
2005,06,07,17,01,15.70
2005,06,07,17,02,15.80
2005,06,07,17,03,15.70
2005,06,07,17,04,15.70
2005,06,07,17,05,15.70
2005,06,07,17,06,15.70
2005,06,07,17,07,15.60
2005,06,07,17,08,15.60
2005,06,07,17,09,15.60
2005,06,07,17,10,15.60
2005,06,07,17,11,15.60
2005,06,07,17,12,15.60
2005,06,07,17,13,15.60
2005,06,07,17,14,15.60
2005,06,07,17,15,15.60
2005,06,07,17,16,15.60
2005,06,07,17,17,15.60
2005,06,07,17,18,15.50
2005,06,07,17,19,15.50
2005,06,07,17,20,15.50
2005,06,07,17,21,15.50
2005,06,07,17,22,15.50
2005,06,07,17,23,15.50
2005,06,07,17,24,15.50
2005,06,07,17,25,15.50